CW2057 Weather Reports


Display with metric or nautical units.
time (UTC)temp
F
wind
direction
speed
MPH
gust
MPH
rain 1hr
in
rain 24hr
in
rain mn
in
humidity
%
barometer
mb
20260503191120 59 288 4.0 15.0 0.00 0.00 0.00 35 1015.7
20260503190629 60 5 7.0 15.0 0.00 0.00 0.00 34 1015.6
20260503190119 61 321 4.0 14.0 0.00 0.00 0.00 35 1015.6
20260503185627 61 342 3.0 14.0 0.00 0.00 0.00 35 1015.8
20260503185136 61 300 5.0 14.0 0.00 0.00 0.00 36 1015.9
20260503184623 61 316 4.0 14.0 0.00 0.00 0.00 36 1016.0
20260503184131 59 312 1.0 9.0 0.00 0.00 0.00 38 1016.0
20260503183620 59 300 1.0 11.0 0.00 0.00 0.00 36 1015.9
20260503183148 59 299 5.0 11.0 0.00 0.00 0.00 33 1016.0
20260503182635 59 47 2.0 10.0 0.00 0.00 0.00 37 1016.1
20260503182123 60 301 5.0 10.0 0.00 0.00 0.00 36 1016.1
20260503181632 59 32 4.0 8.0 0.00 0.00 0.00 36 1016.1
20260503181141 59 355 2.0 9.0 0.00 0.00 0.00 37 1016.3
20260503180629 59 118 3.0 8.0 0.00 0.00 0.00 37 1016.1
20260503180118 59 4 2.0 7.0 0.00 0.00 0.00 33 1016.3
20260503175621 60 353 3.0 10.0 0.00 0.00 0.00 39 1016.3
20260503175130 59 280 6.0 10.0 0.00 0.00 0.00 34 1016.3
20260503174619 59 7 2.0 10.0 0.00 0.00 0.00 38 1016.4
20260503174127 56 287 5.0 9.0 0.00 0.00 0.00 37 1016.5
20260503173615 57 14 4.0 9.0 0.00 0.00 0.00 42 1016.4
20260503173124 58 329 3.0 15.0 0.00 0.00 0.00 35 1016.6
20260503172614 58 20 4.0 15.0 0.00 0.00 0.00 38 1016.6
20260503172122 58 328 5.0 11.0 0.00 0.00 0.00 36 1016.4
20260503171631 58 5 3.0 11.0 0.00 0.00 0.00 40 1016.5
20260503171120 57 336 1.0 9.0 0.00 0.00 0.00 40 1016.6
20260503170627 58 251 3.0 8.0 0.00 0.00 0.00 39 1016.7
20260503170117 57 353 4.0 8.0 0.00 0.00 0.00 38 1016.7
20260503160130 57 351 3.0 14.0 0.00 0.00 0.00 40 1017.1
20260503150625 54 349 3.0 11.0 0.00 0.00 0.00 41 1017.2
20260503150135 53 10 3.0 11.0 0.00 0.00 0.00 38 1017.2
20260503140145 51 338 3.0 9.0 0.00 0.00 0.00 41 1017.3
20260503131120 49 225 2.0 9.0 0.00 0.00 0.00 48 1017.3
20260503130629 49 29 1.0 9.0 0.00 0.00 0.00 51 1017.3
20260503130117 48 317 2.0 9.0 0.00 0.00 0.00 50 1017.3
20260503120122 43 10 2.0 9.0 0.00 0.00 0.00 63 1016.9
20260503110628 40 268 1.0 5.0 0.00 0.00 0.00 68 1016.5
20260503110118 40 359 2.0 4.0 0.00 0.00 0.00 68 1016.4
20260503100116 40 6 1.0 3.0 0.00 0.00 0.00 69 1015.4
20260503090114 40 315 1.0 4.0 0.00 0.00 0.00 72 1015.0
20260503081630 41 325 0.0 4.0 0.00 0.00 0.00 71 1014.6
20260503081118 41 319 1.0 4.0 0.00 0.00 0.00 71 1014.6
20260503080626 41 317 0.0 4.0 0.00 0.00 0.00 71 1014.6
20260503080116 41 315 1.0 4.0 0.00 0.00 0.00 70 1014.5
20260503072614 41 319 1.0 4.0 0.00 0.00 0.00 71 1014.3
20260503072121 41 356 1.0 4.0 0.00 0.00 0.00 71 1014.2
20260503071630 41 326 1.0 3.0 0.00 0.00 0.00 71 1014.3
20260503071117 41 22 0.0 2.0 0.00 0.00 0.00 71 1014.2
20260503070626 41 339 0.0 1.0 0.00 0.00 0.00 71 1014.2
20260503070115 42 339 0.0 0.0 0.00 0.00 0.00 70 1014.0
20260503060128 43 315 0.0 1.0 0.00 0.00 0.00 68 1013.9
20260503055124 43 311 0.0 0.0 0.00 0.00 0.00 68 1013.9
20260503054614 44 311 0.0 0.0 0.00 0.00 0.00 68 1013.8
20260503054123 44 311 0.0 1.0 0.00 0.00 0.00 67 1013.7
20260503053632 44 311 0.0 1.0 0.00 0.00 0.00 66 1013.7
20260503053120 44 311 0.0 1.0 0.00 0.00 0.00 66 1014.0
20260503052629 44 319 0.0 2.0 0.00 0.00 0.00 66 1014.0
20260503052118 44 338 0.0 2.0 0.00 0.00 0.00 66 1014.1
20260503051626 44 290 0.0 1.0 0.00 0.00 0.00 65 1014.1
20260503051115 44 310 0.0 1.0 0.00 0.00 0.00 65 1014.1
20260503050619 45 314 0.0 0.0 0.00 0.00 0.00 65 1014.1
20260503050129 45 317 0.0 0.0 0.00 0.00 0.00 65 1014.1
20260503045617 45 356 0.0 0.0 0.00 0.00 0.00 66 1014.0
20260503045125 45 356 0.0 0.0 0.00 0.00 0.00 66 1014.1
20260503044614 45 360 0.0 0.0 0.00 0.00 0.00 66 1014.1
20260503044123 45 360 0.0 0.0 0.00 0.00 0.00 66 1014.2
20260503043633 45 353 0.0 0.0 0.00 0.00 0.00 65 1014.2
20260503043121 46 353 0.0 0.0 0.00 0.00 0.00 63 1014.2
20260503042630 46 353 0.0 2.0 0.00 0.00 0.00 63 1014.3
20260503042120 46 20 0.0 2.0 0.00 0.00 0.00 64 1014.3
20260503041629 46 8 0.0 2.0 0.00 0.00 0.00 64 1014.4
20260503041118 46 4 0.0 1.0 0.00 0.00 0.00 64 1014.2
20260503040627 46 4 0.0 3.0 0.00 0.00 0.00 64 1014.4
20260503040115 46 4 0.0 3.0 0.00 0.00 0.00 64 1014.4
20260503035642 46 357 0.0 0.0 0.00 0.00 0.00 63 1014.5
20260503035149 46 357 0.0 0.0 0.00 0.00 0.00 61 1014.5
20260503034618 47 358 0.0 2.0 0.00 0.00 0.00 62 1014.5
20260503034142 47 358 0.0 2.0 0.00 0.00 0.00 61 1014.3
20260503033631 47 12 0.0 2.0 0.00 0.00 0.00 62 1014.4
20260503033118 47 12 1.0 2.0 0.00 0.00 0.00 60 1014.4
20260503032627 47 349 1.0 3.0 0.00 0.00 0.00 60 1014.4
20260503032116 48 17 0.0 3.0 0.00 0.00 0.00 60 1014.4
20260503031644 48 13 1.0 4.0 0.00 0.00 0.00 58 1014.5
20260503031132 48 16 0.0 5.0 0.00 0.00 0.00 59 1014.3
20260503030642 49 6 0.0 6.0 0.00 0.00 0.00 58 1015.1
20260503030129 49 20 0.0 6.0 0.00 0.00 0.00 58 1014.5
20260503025619 49 8 0.0 5.0 0.00 0.00 0.00 57 1014.4
20260503025147 49 31 2.0 5.0 0.00 0.00 0.00 56 1014.4
20260503024615 49 16 0.0 5.0 0.00 0.00 0.00 57 1014.4
20260503024122 50 7 1.0 13.0 0.00 0.00 0.00 55 1014.5
20260503023632 50 334 5.0 13.0 0.00 0.00 0.00 54 1014.3
20260503023121 50 15 2.0 12.0 0.00 0.00 0.00 56 1014.4
20260503022627 49 22 3.0 11.0 0.00 0.00 0.00 56 1014.3
20260503022154 50 43 0.0 7.0 0.00 0.00 0.00 56 1014.3
20260503021623 50 82 0.0 9.0 0.00 0.00 0.00 55 1014.4
20260503021130 50 349 2.0 9.0 0.00 0.00 0.00 53 1014.4
20260503020619 50 354 0.0 7.0 0.00 0.00 0.00 53 1014.4
20260503020128 50 31 1.0 8.0 0.00 0.00 0.00 53 1014.2
20260503015617 50 357 3.0 8.0 0.00 0.00 0.00 53 1014.1
20260503015126 50 343 0.0 3.0 0.00 0.00 0.00 55 1014.0
20260503014635 50 337 0.0 3.0 0.00 0.00 0.00 57 1014.1
20260503014123 50 359 0.0 2.0 0.00 0.00 0.00 56 1014.0
20260503013632 50 358 0.0 4.0 0.00 0.00 0.00 55 1014.0
20260503013121 50 16 0.0 4.0 0.00 0.00 0.00 55 1014.0
20260503012629 50 1 0.0 1.0 0.00 0.00 0.00 56 1013.9
20260503012116 50 1 0.0 1.0 0.00 0.00 0.00 55 1013.8
20260503011625 50 1 0.0 3.0 0.00 0.00 0.00 55 1013.9
20260503011114 50 1 0.0 3.0 0.00 0.00 0.00 54 1013.9
20260503010624 50 356 0.0 0.0 0.00 0.00 0.00 54 1013.6
20260503010132 51 356 0.0 0.0 0.00 0.00 0.00 55 1013.5
20260503005637 51 356 0.0 0.0 0.00 0.00 0.00 52 1013.5
20260503005145 51 356 0.0 1.0 0.00 0.00 0.00 53 1013.4
20260503004632 51 351 0.0 1.0 0.00 0.00 0.00 52 1013.4
20260503004121 51 1 0.0 0.0 0.00 0.00 0.00 53 1013.3
20260503003650 52 358 0.0 0.0 0.00 0.00 0.00 53 1013.3
20260503003117 52 357 0.0 0.0 0.00 0.00 0.00 53 1013.2
20260503002627 52 357 0.0 0.0 0.00 0.00 0.00 53 1013.2
20260503002116 52 357 0.0 0.0 0.00 0.00 0.00 51 1013.1
20260503001625 53 357 0.0 0.0 0.00 0.00 0.00 50 1013.1
20260503001133 53 357 0.0 2.0 0.00 0.00 0.00 50 1013.0
20260503000623 53 9 1.0 2.0 0.00 0.00 0.00 48 1012.9
20260503000132 54 357 0.0 0.0 0.00 0.00 0.00 49 1013.0
20260502235641 54 49 0.0 3.0 0.00 0.00 0.00 49 1012.9
20260502235128 54 50 0.0 3.0 0.00 0.00 0.00 50 1012.9
20260502234618 54 330 0.0 5.0 0.00 0.00 0.00 47 1012.8
20260502234125 54 340 0.0 5.0 0.00 0.00 0.00 46 1012.9
20260502233650 54 14 2.0 6.0 0.00 0.00 0.00 45 1012.7
20260502233118 55 347 2.0 8.0 0.00 0.00 0.00 45 1012.8
20260502232647 55 28 1.0 7.0 0.00 0.00 0.00 45 1012.7
20260502232135 55 357 1.0 8.0 0.00 0.00 0.00 44 1012.7
20260502231623 55 307 1.0 8.0 0.00 0.00 0.00 46 1012.7
20260502231131 55 352 0.0 5.0 0.00 0.00 0.00 44 1012.6
20260502230621 55 351 2.0 5.0 0.00 0.00 0.00 45 1012.6
20260502230128 56 12 0.0 3.0 0.00 0.00 0.00 44 1012.7
20260502225618 55 337 0.0 2.0 0.00 0.00 0.00 46 1012.6
20260502225125 55 353 1.0 2.0 0.00 0.00 0.00 44 1012.5
20260502224635 56 21 0.0 3.0 0.00 0.00 0.00 45 1012.5
20260502224143 56 24 0.0 3.0 0.00 0.00 0.00 44 1012.6
20260502223630 56 328 1.0 7.0 0.00 0.00 0.00 43 1012.6
20260502223119 56 8 1.0 7.0 0.00 0.00 0.00 41 1012.5
20260502222624 56 73 1.0 4.0 0.00 0.00 0.00 43 1012.5
20260502222133 56 340 1.0 4.0 0.00 0.00 0.00 42 1012.5
20260502221621 56 347 2.0 6.0 0.00 0.00 0.00 42 1012.4
20260502221130 56 17 1.0 6.0 0.00 0.00 0.00 41 1012.4
20260502220639 57 357 1.0 6.0 0.00 0.00 0.00 42 1012.4
20260502220147 56 12 3.0 5.0 0.00 0.00 0.00 41 1012.5
20260502215615 57 356 0.0 2.0 0.00 0.00 0.00 43 1012.5
20260502215124 57 7 0.0 4.0 0.00 0.00 0.00 44 1012.4
20260502214654 57 299 0.0 5.0 0.00 0.00 0.00 42 1012.4
20260502214120 57 10 0.0 5.0 0.00 0.00 0.00 42 1012.5
20260502213630 57 165 1.0 4.0 0.00 0.00 0.00 40 1012.4
20260502213118 57 165 1.0 5.0 0.00 0.00 0.00 41 1012.4
20260502212646 57 165 1.0 5.0 0.00 0.00 0.00 40 1012.3
20260502212149 58 165 2.0 4.0 0.00 0.00 0.00 39 1012.3
20260502211616 58 165 0.0 3.0 0.00 0.00 0.00 42 1012.3
20260502211125 58 38 1.0 3.0 0.00 0.00 0.00 43 1012.1
20260502210632 59 97 1.0 6.0 0.00 0.00 0.00 38 1012.2
20260502210121 59 353 0.0 6.0 0.00 0.00 0.00 38 1012.0
20260502205629 60 326 1.0 6.0 0.00 0.00 0.00 39 1012.1
20260502205118 59 322 2.0 6.0 0.00 0.00 0.00 37 1012.1
20260502204646 59 345 1.0 4.0 0.00 0.00 0.00 39 1012.0
20260502204114 59 299 1.0 5.0 0.00 0.00 0.00 37 1012.0
20260502203623 59 359 2.0 5.0 0.00 0.00 0.00 39 1012.1
20260502203129 59 12 0.0 3.0 0.00 0.00 0.00 40 1012.1
20260502202619 59 20 1.0 6.0 0.00 0.00 0.00 40 1012.1
20260502202128 59 17 1.0 6.0 0.00 0.00 0.00 42 1012.1
20260502201616 59 44 1.0 5.0 0.00 0.00 0.00 41 1012.1
20260502201125 59 16 2.0 5.0 0.00 0.00 0.00 38 1012.2
20260502200615 60 4 1.0 10.0 0.00 0.00 0.00 36 1012.2
20260502200124 61 92 2.0 10.0 0.00 0.00 0.00 35 1012.1
20260502195631 61 276 2.0 10.0 0.00 0.00 0.00 37 1012.2
20260502195121 62 160 2.0 9.0 0.00 0.00 0.00 37 1012.2
20260502194626 62 49 3.0 9.0 0.00 0.00 0.00 38 1012.1
20260502194114 62 165 3.0 9.0 0.00 0.00 0.00 35 1012.3
20260502193643 62 30 2.0 9.0 0.00 0.00 0.00 37 1012.4
20260502193130 62 165 2.0 5.0 0.00 0.00 0.00 41 1012.5
20260502192618 62 108 2.0 6.0 0.00 0.00 0.00 43 1012.5
20260502192127 61 6 2.0 5.0 0.00 0.00 0.00 42 1012.6
20260502191635 62 34 1.0 6.0 0.00 0.00 0.00 40 1012.6